Theta_e
347 352 355 358 367 362 361 351 345 350 349 346 349 349 350 352 356 363 347 346 343 346 349 349 348 346 346 349 344 344 343 343 345 345 352 353 352 349 352 353 352 347 351 352 353 353 354 354 353
348 354 352 361 363 365 357 350 350 347 348 348 349 346 349 353 349 348 347 345 344 344 349 348 346 345 343 345 344 343 343 345 345 351 351 352 350 352 351 352 351 351 350 354 354 355 355 354 349
349 352 353 350 354 366 356 349 346 344 347 348 348 345 345 352 348 348 346 345 344 345 347 344 343 345 345 344 345 339 336 342 352 352 349 349 350 349 353 353 353 354 351 352 353 352 352 351 337
350 353 352 358 358 358 351 347 346 345 346 348 346 347 346 346 347 347 347 346 345 345 345 346 347 348 348 348 345 342 342 350 351 346 349 352 353 354 354 354 354 352 352 353 354 354 353 348 335
352 355 366 360 360 350 348 346 346 347 347 348 345 348 348 347 346 346 346 346 344 344 345 345 343 344 348 348 346 344 346 349 349 345 350 352 353 353 353 355 354 354 354 355 354 353 352 349 335
357 358 365 366 363 351 348 344 344 347 346 349 347 346 346 344 345 346 344 343 343 343 345 343 343 344 347 343 344 347 344 345 347 347 346 348 350 353 354 351 352 352 354 353 353 354 348 337 331
356 361 365 363 361 357 354 345 344 345 345 346 345 347 344 341 345 344 344 342 341 341 343 341 342 342 339 343 349 349 349 346 347 345 346 345 346 351 352 345 352 353 354 352 350 349 343 338 331
351 357 354 356 353 357 357 351 347 345 346 344 343 346 345 340 340 344 343 343 339 341 341 341 343 341 340 340 343 347 348 343 342 341 340 338 341 346 351 348 349 354 353 347 346 344 342 339 334
349 360 353 359 353 360 357 351 347 344 344 346 345 344 342 340 339 343 344 343 341 340 339 341 340 337 336 341 342 344 341 340 341 339 342 345 346 350 349 351 352 353 347 344 343 341 339 337 337
356 361 361 356 354 356 357 358 351 346 346 347 345 344 341 340 340 339 345 342 344 342 344 344 341 339 340 339 340 342 345 339 338 341 345 350 350 349 349 347 345 347 343 342 340 342 343 343 343
354 362 354 352 351 349 358 352 353 348 348 348 347 345 342 341 341 340 340 344 343 346 347 346 344 336 340 339 340 340 340 341 342 345 346 347 348 347 346 343 345 342 341 340 340 343 346 348 349
359 357 353 351 350 349 355 356 354 351 350 346 344 343 342 342 341 340 340 340 344 345 348 347 345 339 339 339 339 340 340 341 342 344 345 347 342 343 345 346 344 345 346 346 346 349 347 348 348
355 352 352 351 351 353 352 353 355 345 343 347 344 343 343 342 342 340 340 341 343 346 345 346 347 344 342 336 337 339 342 343 346 344 344 344 344 344 344 347 346 345 347 346 347 343 347 346 347
349 352 352 351 351 351 353 355 355 347 345 346 345 344 344 343 342 341 340 340 340 345 347 345 346 347 344 339 336 342 346 346 346 345 345 347 343 344 345 343 346 344 343 344 346 349 344 345 345
350 356 353 354 353 353 350 353 354 351 350 346 345 345 344 344 342 341 340 340 340 344 346 345 346 348 347 346 346 346 347 343 344 343 347 350 344 349 346 347 344 348 350 350 348 346 345 344 344
355 358 354 355 351 350 348 357 349 344 342 350 346 345 346 344 342 341 341 340 341 344 345 343 343 346 346 345 346 349 345 344 347 346 347 339 345 337 344 348 348 342 342 342 344 346 346 344 343
353 355 352 358 352 350 347 353 350 342 344 350 346 344 345 344 344 343 342 341 342 345 346 343 345 344 345 343 348 348 344 344 344 345 349 346 348 349 351 338 345 351 352 347 347 345 345 344 343
355 353 353 358 358 354 351 350 348 349 353 350 349 348 346 345 345 344 344 342 342 346 347 344 346 345 346 348 345 348 345 344 344 346 349 348 351 350 346 336 351 351 350 351 343 344 348 345 345
346 346 350 354 356 356 356 355 351 349 351 353 347 345 346 346 345 345 344 344 344 346 348 347 346 346 347 348 350 344 345 346 344 350 351 347 351 350 348 350 341 346 353 346 349 352 351 344 343
349 349 349 353 350 357 351 358 355 349 352 347 345 348 347 346 348 346 345 345 346 347 348 350 348 347 347 347 348 345 346 344 344 350 349 345 349 352 349 349 351 350 350 350 350 354 352 352 346
345 346 345 342 346 350 356 358 357 351 350 346 340 349 347 347 347 348 346 346 347 346 350 351 350 351 347 347 347 345 345 347 347 350 350 350 351 351 350 352 352 354 345 351 352 352 354 352 346
333 336 340 338 338 347 349 364 353 345 349 353 349 345 348 348 348 347 342 345 347 346 349 351 352 351 348 349 346 348 347 348 346 349 349 348 349 350 352 352 353 353 351 350 353 350 354 352 339
330 335 337 336 336 339 347 350 355 348 352 355 353 350 349 347 349 342 340 342 349 350 349 353 353 350 351 348 350 348 346 346 346 344 344 350 350 350 349 351 352 355 352 353 348 352 355 351 354
327 332 336 336 336 337 339 348 356 352 353 353 355 350 349 349 348 347 344 348 349 351 351 355 355 351 351 350 347 349 346 348 346 345 349 351 351 349 351 350 352 354 354 353 350 353 355 357 355
324 327 331 337 337 338 346 348 356 351 351 346 344 351 350 351 349 349 350 348 349 348 347 343 354 353 353 352 350 348 348 347 349 346 347 349 348 351 349 352 351 352 350 353 352 352 355 354 357
324 325 330 341 352 351 348 347 349 347 342 346 344 348 352 351 351 349 351 348 346 348 348 350 355 354 353 354 353 350 351 349 348 352 348 345 348 349 352 348 352 348 353 351 352 352 351 350 351
325 326 328 332 344 352 351 344 341 340 341 340 344 350 351 351 351 349 352 350 348 348 350 352 356 357 356 355 353 352 350 349 351 350 350 346 349 350 353 352 352 351 348 350 352 351 350 351 349
329 328 329 331 340 352 352 350 347 344 340 342 345 344 346 347 349 349 350 350 350 348 348 353 356 356 356 355 353 351 352 350 349 349 350 347 349 349 349 349 347 348 349 350 350 349 347 351 351
327 332 332 332 334 339 346 349 345 343 343 341 341 341 343 344 345 347 350 349 351 350 349 350 353 356 356 355 354 353 352 352 349 348 349 349 347 351 349 349 350 351 352 352 352 351 351 350 350
328 331 332 332 337 334 335 343 337 340 340 339 342 342 344 343 345 346 347 350 353 350 350 353 353 356 355 355 354 352 351 352 352 346 349 350 347 350 346 333 350 351 352 351 351 350 352 352 349
Wind_Speed
7 10 8 15 3 2 4 7 13 14 15 14 22 16 17 19 6 10 15 25 22 18 15 15 14 14 14 13 12 11 11 11 11 13 12 11 13 13 15 16 16 17 16 16 16 16 16 15 15
9 16 5 3 3 3 6 11 15 9 16 16 15 16 21 21 19 17 14 21 21 18 16 15 15 15 14 14 12 12 13 13 12 12 12 12 13 13 16 16 15 16 16 16 16 16 16 14 13
10 12 3 4 4 4 10 7 14 11 15 17 13 15 16 21 18 13 21 23 20 19 17 15 15 15 15 16 13 14 14 14 12 12 11 13 14 14 16 15 15 15 16 16 15 16 14 12 11
8 5 4 7 16 22 13 11 12 12 14 19 15 12 17 28 13 23 24 24 26 21 17 16 15 15 14 14 13 12 11 11 10 11 11 12 13 15 15 15 16 16 15 14 13 11 10 10 12
14 7 3 1 16 11 14 7 19 12 14 20 18 19 20 30 28 23 28 25 22 18 16 15 16 14 14 15 13 12 11 11 11 11 12 13 13 13 14 15 15 15 14 11 10 9 10 10 11
3 3 2 4 15 12 11 11 11 16 13 21 18 21 16 24 26 26 24 24 22 19 19 17 18 17 16 15 13 13 14 13 12 12 13 12 13 14 14 14 14 13 12 10 10 10 11 11 10
7 3 7 1 5 15 10 2 8 13 15 19 22 21 15 14 27 31 30 24 20 19 21 19 18 17 16 16 17 17 15 16 17 15 14 14 16 14 13 14 13 12 10 10 10 10 10 11 10
4 5 12 3 2 5 14 10 10 12 17 19 17 15 17 18 16 36 29 25 25 24 25 19 20 19 17 14 15 17 16 17 19 20 16 15 14 14 13 14 12 10 10 9 9 9 9 9 11
6 5 5 7 13 8 15 5 10 10 12 10 6 20 24 23 20 28 25 24 28 29 26 22 20 20 16 16 17 17 18 16 17 15 15 12 13 12 12 11 11 10 10 9 9 9 9 11 14
5 3 9 6 9 10 9 12 7 14 11 17 18 25 26 24 21 20 26 23 25 32 17 19 20 20 18 16 20 20 12 13 16 15 15 14 10 13 12 12 13 11 10 9 9 8 7 7 5
9 3 5 7 5 10 15 1 7 5 14 19 20 21 20 21 18 19 19 29 27 32 28 22 24 16 13 18 19 18 15 15 16 10 11 13 16 17 12 13 12 12 12 10 10 8 8 9 10
6 13 10 7 10 9 11 12 2 13 7 2 19 19 17 17 15 17 22 19 29 20 27 26 15 22 21 11 19 20 19 18 16 11 7 18 18 18 15 15 12 12 11 11 8 7 3 5 0
6 9 11 9 6 7 5 5 5 7 6 15 18 19 17 14 13 15 18 23 28 26 21 16 19 31 27 25 23 27 24 21 15 12 14 17 15 18 16 16 17 14 14 11 5 7 6 4 3
9 7 11 12 10 6 5 4 7 7 13 17 16 17 16 14 15 12 17 18 16 24 26 22 16 31 32 28 28 21 25 20 20 16 13 13 14 11 13 14 13 14 12 10 7 4 8 9 4
11 8 20 13 10 7 5 4 9 10 17 19 18 16 11 14 16 18 18 18 18 20 32 23 22 17 22 21 23 16 19 21 18 14 9 5 16 16 2 17 14 9 7 10 5 8 5 6 11
6 9 4 8 11 6 10 9 9 18 20 16 19 16 12 13 17 16 18 19 21 21 24 18 21 20 13 15 17 14 13 20 19 14 7 10 14 10 29 11 6 11 12 11 10 8 14 8 12
9 8 17 10 9 10 6 5 3 11 21 18 8 14 10 12 13 17 18 18 20 22 22 16 25 21 16 13 9 9 16 13 19 19 16 8 4 13 2 9 8 2 5 4 2 7 7 4 6
4 10 7 16 9 14 11 10 15 22 20 13 5 7 15 14 13 18 19 18 22 23 19 18 21 24 17 13 9 4 9 7 11 17 15 17 8 4 25 19 9 5 9 14 9 4 10 5 7
17 12 16 12 23 18 13 13 17 11 10 7 1 11 16 15 12 14 18 25 22 23 21 19 17 23 19 16 12 9 8 8 10 17 21 12 7 3 4 4 5 2 9 3 3 7 7 4 7
19 15 13 15 11 10 2 12 17 17 15 15 15 15 15 19 15 19 25 25 25 24 23 22 20 24 21 20 18 17 13 14 10 16 14 12 6 5 4 1 2 3 5 3 4 3 8 10 6
18 11 10 1 7 10 15 13 5 4 14 18 20 20 6 10 17 5 21 22 21 26 27 26 23 23 23 19 16 17 13 8 14 16 14 11 9 8 7 3 3 4 3 5 5 4 7 9 4
14 9 12 6 7 4 5 3 5 12 15 17 19 17 7 20 18 14 11 11 27 34 24 27 26 23 23 19 18 15 12 11 13 20 14 16 14 9 9 6 3 4 6 3 6 7 3 6 12
16 1 8 11 9 13 11 5 6 5 15 21 19 18 14 19 21 17 19 40 30 31 36 27 26 24 21 23 16 19 17 15 7 14 13 21 15 10 8 8 6 3 4 8 8 5 8 8 7
17 11 11 12 12 12 18 8 6 10 17 8 13 23 20 20 21 18 33 37 15 17 12 19 26 27 23 24 20 19 21 17 12 14 21 18 17 14 13 13 11 7 5 5 6 6 8 11 15
16 15 10 11 10 7 8 6 8 19 16 16 8 20 24 15 16 20 21 20 17 27 18 33 30 28 25 23 22 21 19 18 13 14 10 15 21 21 22 19 15 13 11 7 5 5 8 7 11
17 18 14 8 6 4 13 8 8 22 13 35 35 16 15 16 15 17 15 19 23 26 34 40 35 29 27 24 24 24 21 19 19 15 16 14 20 20 25 22 17 13 10 11 9 6 8 10 11
13 16 21 16 6 3 6 5 1 11 13 12 13 11 10 8 13 18 19 20 25 23 26 33 33 30 28 26 25 23 25 25 20 20 16 20 12 6 25 19 17 15 11 13 12 11 10 12 10
18 11 13 12 13 9 6 14 10 15 12 14 16 12 12 6 3 3 13 24 22 24 23 18 31 29 29 26 26 25 24 28 26 22 21 19 16 6 11 14 15 14 14 14 11 12 13 15 12
11 11 10 14 6 7 5 4 14 11 11 12 11 13 13 10 6 2 3 5 18 20 22 28 30 31 29 28 28 27 27 28 28 28 24 23 15 11 18 8 10 9 14 12 13 13 14 10 9
16 16 14 10 10 9 12 7 6 12 14 10 12 11 10 6 7 4 4 3 7 19 23 25 29 30 30 30 31 29 29 26 25 28 24 23 22 18 16 19 16 20 14 10 11 15 15 9 11
Wind_Direction
224 229 226 256 16 268 325 147 91 96 81 76 59 64 65 50 63 115 110 128 135 128 118 116 113 116 113 111 112 108 100 97 95 100 99 104 109 110 110 109 113 116 115 106 102 100 97 97 98
238 267 239 61 332 291 92 73 102 101 101 87 72 84 76 75 93 111 110 136 135 135 128 120 119 118 119 115 117 116 109 101 99 100 104 111 108 110 107 106 109 109 108 101 101 98 98 97 104
243 267 344 46 307 310 109 136 89 95 80 90 88 73 76 113 110 115 118 122 133 129 133 127 121 119 119 114 111 111 107 100 99 106 106 108 110 108 103 106 107 106 104 101 101 98 90 93 102
244 228 184 144 257 255 116 105 120 122 91 109 108 75 79 106 97 128 128 129 119 129 127 126 121 117 115 113 112 112 108 109 111 112 113 107 107 105 108 113 109 108 107 102 103 100 93 91 104
247 264 103 324 240 108 91 124 116 125 109 86 99 93 94 106 121 135 139 126 134 130 125 122 121 115 115 114 108 114 115 115 118 116 114 112 111 111 111 112 109 111 106 104 103 102 99 99 113
254 337 46 133 274 93 85 75 79 92 93 106 117 104 103 127 122 128 127 141 129 121 121 121 122 111 110 117 113 106 114 114 117 119 119 118 115 116 117 112 113 109 109 105 101 103 110 108 116
215 115 286 139 304 335 64 28 113 135 129 126 117 119 130 115 139 137 124 122 118 114 123 123 125 124 124 121 115 113 111 114 115 116 118 123 122 120 119 119 117 116 111 103 104 112 110 110 121
342 78 345 121 74 269 288 98 73 102 104 93 122 131 141 133 141 123 128 125 122 123 127 124 130 132 131 129 117 107 113 123 126 120 122 125 128 129 130 130 127 126 120 116 113 115 115 120 123
182 94 276 200 175 202 238 148 125 104 131 111 126 141 130 146 137 129 121 118 127 124 125 144 143 132 120 130 120 109 112 106 130 121 129 143 131 128 132 147 138 142 134 127 127 133 131 132 140
86 112 221 148 157 186 71 16 334 140 121 90 120 115 136 149 155 139 136 139 133 139 146 151 138 129 118 117 130 130 122 125 125 139 154 150 158 157 154 161 151 152 139 139 149 164 173 164 187
84 259 68 92 155 152 100 89 305 46 135 134 130 133 149 152 165 155 145 152 142 148 134 155 145 127 117 128 130 137 147 164 174 196 188 201 149 159 165 159 157 156 155 158 163 187 222 219 204
89 291 92 99 143 152 126 200 212 17 47 107 134 140 151 166 168 162 153 141 139 133 135 144 132 146 132 139 155 157 176 168 173 185 187 177 163 171 171 158 162 181 186 197 233 212 207 261 216
41 114 117 119 98 89 147 90 159 151 243 251 134 149 162 174 156 172 149 141 135 130 133 137 142 155 139 159 159 168 181 177 161 172 181 187 196 189 188 197 192 198 190 185 181 143 178 238 319
181 148 140 135 135 110 148 112 317 191 241 154 147 158 169 162 169 149 132 127 140 145 144 138 130 150 152 166 163 177 181 190 179 178 206 222 161 162 157 182 196 172 206 190 146 156 189 213 154
156 82 14 147 152 133 153 157 358 307 329 149 151 161 172 178 173 156 138 142 156 147 141 145 141 150 160 184 174 184 197 173 174 166 205 187 166 211 304 201 191 161 118 114 154 192 212 122 128
134 93 280 175 127 140 183 139 13 344 322 296 153 163 211 159 158 150 151 160 159 152 135 151 158 148 162 182 189 211 198 164 147 154 154 157 120 98 182 231 192 141 163 168 180 225 242 184 165
49 12 343 282 142 146 149 110 55 188 262 271 160 155 165 155 144 155 159 165 148 147 140 171 142 150 169 186 203 127 196 185 161 154 160 146 270 205 352 83 106 244 282 194 124 315 316 248 263
101 298 265 258 226 190 152 181 198 211 213 192 18 278 168 148 185 159 163 158 158 145 152 172 153 152 165 173 191 200 182 155 152 169 150 166 201 212 108 136 221 276 148 77 76 282 323 308 294
150 190 237 259 181 176 193 176 187 198 210 180 174 268 177 181 173 185 168 158 159 155 163 164 170 152 156 171 192 171 209 194 193 142 156 163 178 227 301 146 184 304 47 139 115 226 315 269 309
164 155 250 175 161 123 128 233 169 182 185 171 200 230 206 178 157 203 168 178 168 160 169 168 174 165 170 180 192 186 204 193 205 158 151 163 179 206 262 263 137 251 46 123 200 302 272 276 204
203 203 252 273 169 171 155 250 106 212 200 184 206 228 190 190 168 98 292 173 158 170 176 172 174 177 182 187 195 193 219 216 201 155 160 171 186 208 236 257 306 6 296 323 260 285 337 333 307
264 265 200 205 270 249 220 179 102 303 292 203 213 219 182 154 171 161 255 259 184 177 184 177 172 182 190 195 189 184 204 203 198 195 185 187 190 206 210 215 266 316 281 16 267 298 333 327 22
264 18 265 282 272 260 179 190 131 174 259 233 202 200 215 188 166 173 185 230 225 170 177 180 171 184 193 203 198 184 205 224 228 187 202 182 183 205 214 193 202 223 274 315 276 294 310 284 233
253 242 213 236 247 262 238 196 193 186 230 345 216 189 197 202 178 185 188 213 139 134 184 159 175 184 193 200 202 194 200 218 213 220 176 172 182 199 203 205 199 206 227 255 272 276 275 290 298
236 246 249 240 228 269 111 206 188 213 182 147 173 256 231 188 170 208 180 194 145 151 216 212 189 184 189 196 205 200 211 224 213 226 214 190 195 196 202 195 193 197 212 219 235 256 272 278 288
209 233 235 240 4 30 332 17 164 193 170 166 196 190 134 182 186 200 189 190 174 186 201 207 181 177 184 195 203 206 203 215 220 223 219 209 235 218 206 192 196 200 203 209 218 248 262 253 264
195 231 255 263 97 71 308 323 277 135 140 137 126 120 151 169 179 207 189 188 185 194 184 196 172 172 180 195 201 206 206 209 217 218 230 227 254 327 189 185 189 201 211 213 217 234 251 259 261
260 218 233 249 251 189 194 266 245 166 166 150 146 159 128 112 143 255 194 194 184 187 202 181 169 179 180 194 196 204 206 211 216 219 214 224 235 153 183 197 207 202 202 214 218 238 252 258 251
221 252 262 277 312 283 187 263 145 167 161 159 154 152 135 150 142 115 297 200 172 185 205 174 196 186 181 192 197 198 201 210 215 221 216 217 224 225 221 179 231 274 224 216 220 236 255 273 236
255 214 226 255 238 256 290 181 248 137 146 170 143 120 108 94 110 132 157 274 169 190 207 183 187 186 188 195 197 199 198 204 210 214 220 211 209 224 243 232 221 222 237 237 243 243 251 264 235